Voltar ao catálogo

STARLINK-2634

AtivoComunicaçõesVLEO
NORAD 48445·PAYLOAD·🇺🇸 United States

Lançado May 9, 2021 de Cape Canaveral Space Force Station

Loading…

Próximas Passagens (próximas 24 horas)

TLE

AtualizadoSource: CelesTrak SupGP

Época: Sep 14, 2026, 19:46 UTC

1 48445C 21040T   26257.82409722  .00041125  00000+0  13223-2 0  2570
2 48445  53.1590  17.9298 0001081  87.5611 223.2535 15.31684299    15

Acompanhe STARLINK-2634 em tempo real com AllMySat

Download on the App Store